N36DB KOGD-

Flight info

Callsign N36DB
Flight time N/A
Altitude VFR
Route /W
Aircraft C172/L-DOV/C

Departure

Time 2026-04-23 02:33
Airport Ogden Hinckley Airport (KOGD)

Arrival

Time N/A
Airport -
Time Latitude Longitude Altitude Speed Heading
2026-04-23 02:33 41.22264 -112.09347 8395 ft 103 kts 291°
2026-04-23 02:33 41.22578 -112.10224 8690 ft 106 kts 292°
2026-04-23 02:33 41.22916 -112.11134 8715 ft 127 kts 292°
2026-04-23 02:33 41.23078 -112.12354 8664 ft 145 kts 256°
2026-04-23 02:34 41.22388 -112.13396 8676 ft 162 kts 215°
2026-04-23 02:34 41.21449 -112.14232 8688 ft 161 kts 237°
2026-04-23 02:34 41.21224 -112.15637 8717 ft 161 kts 282°
2026-04-23 02:34 41.21898 -112.16818 8727 ft 171 kts 325°
2026-04-23 02:35 41.23030 -112.17349 8746 ft 175 kts 338°
2026-04-23 02:35 41.24175 -112.17883 8765 ft 174 kts 331°
2026-04-23 02:35 41.25220 -112.18696 8782 ft 171 kts 318°
2026-04-23 02:35 41.26088 -112.19766 8792 ft 169 kts 307°
2026-04-23 02:36 41.26706 -112.21068 8804 ft 168 kts 295°
2026-04-23 02:36 41.27243 -112.22468 8823 ft 168 kts 295°
2026-04-23 02:36 41.27665 -112.23874 8823 ft 167 kts 276°
2026-04-23 02:36 41.27339 -112.25334 8817 ft 172 kts 235°
2026-04-23 02:37 41.26295 -112.26170 8822 ft 180 kts 204°
2026-04-23 02:37 41.25103 -112.26680 8845 ft 180 kts 204°
2026-04-23 02:37 41.23917 -112.27215 8867 ft 180 kts 204°
2026-04-23 02:37 41.22722 -112.27749 8875 ft 180 kts 204°
2026-04-23 02:38 41.21532 -112.28277 8893 ft 181 kts 204°
2026-04-23 02:38 41.20338 -112.28801 8910 ft 181 kts 204°
2026-04-23 02:38 41.19142 -112.29321 8922 ft 181 kts 204°
2026-04-23 02:38 41.17965 -112.29832 8940 ft 181 kts 204°
2026-04-23 02:39 41.16763 -112.30354 8954 ft 181 kts 204°
2026-04-23 02:39 41.15562 -112.30878 8957 ft 181 kts 204°
2026-04-23 02:39 41.14376 -112.31392 8972 ft 181 kts 204°
2026-04-23 02:39 41.13161 -112.31915 8980 ft 181 kts 204°
2026-04-23 02:40 41.11997 -112.32459 9000 ft 177 kts 212°
2026-04-23 02:40 41.11110 -112.33513 9007 ft 170 kts 236°
2026-04-23 02:40 41.10343 -112.34708 9021 ft 170 kts 233°
2026-04-23 02:40 41.09546 -112.35890 9026 ft 171 kts 232°
2026-04-23 02:41 41.08763 -112.37069 9044 ft 171 kts 233°
2026-04-23 02:41 41.07976 -112.38253 9047 ft 171 kts 233°
2026-04-23 02:41 41.07199 -112.39423 9049 ft 171 kts 233°
2026-04-23 02:41 41.06406 -112.40612 9051 ft 171 kts 233°
2026-04-23 02:42 41.05615 -112.41796 9060 ft 171 kts 233°
2026-04-23 02:42 41.04834 -112.42970 9072 ft 171 kts 233°
2026-04-23 02:42 41.04043 -112.44155 9100 ft 170 kts 233°
2026-04-23 02:42 41.03258 -112.45330 9182 ft 167 kts 233°
2026-04-23 02:43 41.02533 -112.46397 9659 ft 144 kts 233°
2026-04-23 02:43 41.01882 -112.47342 9946 ft 140 kts 233°
2026-04-23 02:43 41.01217 -112.48303 10116 ft 142 kts 233°
2026-04-23 02:43 41.00554 -112.49262 10301 ft 142 kts 233°
2026-04-23 02:44 40.99881 -112.50223 10490 ft 142 kts 233°
2026-04-23 02:44 40.99438 -112.50862 10601 ft 142 kts 233°
2026-04-23 02:44 40.98762 -112.51827 10777 ft 142 kts 233°
2026-04-23 02:44 40.98092 -112.52792 10939 ft 143 kts 233°
2026-04-23 02:45 40.97419 -112.53761 11107 ft 143 kts 233°
2026-04-23 02:45 40.96743 -112.54732 11264 ft 143 kts 233°
2026-04-23 02:45 40.96073 -112.55700 11420 ft 144 kts 233°
2026-04-23 02:45 40.95400 -112.56668 11590 ft 144 kts 233°
2026-04-23 02:46 40.94790 -112.57724 11749 ft 143 kts 239°
2026-04-23 02:46 40.94214 -112.58781 11930 ft 143 kts 239°
2026-04-23 02:46 40.93629 -112.59846 12088 ft 144 kts 239°
2026-04-23 02:46 40.93040 -112.60929 12258 ft 144 kts 239°
2026-04-23 02:47 40.92438 -112.61993 12421 ft 145 kts 238°
2026-04-23 02:47 40.91823 -112.63084 12454 ft 152 kts 238°
2026-04-23 02:47 40.91177 -112.64239 12465 ft 158 kts 238°
2026-04-23 02:47 40.90516 -112.65424 12465 ft 162 kts 238°
2026-04-23 02:48 40.89840 -112.66641 12461 ft 165 kts 238°
2026-04-23 02:48 40.89164 -112.67858 12465 ft 166 kts 238°
2026-04-23 02:48 40.88476 -112.69099 12462 ft 168 kts 238°
2026-04-23 02:48 40.87785 -112.70342 12466 ft 168 kts 238°
2026-04-23 02:49 40.87098 -112.71578 12465 ft 169 kts 238°
2026-04-23 02:49 40.86402 -112.72831 12465 ft 169 kts 238°
2026-04-23 02:49 40.85706 -112.74083 12466 ft 169 kts 238°
2026-04-23 02:49 40.85008 -112.75332 12461 ft 169 kts 238°
2026-04-23 02:50 40.84310 -112.76575 12458 ft 167 kts 238°
2026-04-23 02:50 40.83618 -112.77810 12465 ft 166 kts 238°
2026-04-23 02:50 40.82941 -112.79027 12468 ft 167 kts 238°
2026-04-23 02:50 40.82247 -112.80270 12468 ft 168 kts 238°
2026-04-23 02:51 40.81647 -112.81578 12466 ft 165 kts 249°
2026-04-23 02:51 40.81178 -112.82975 12466 ft 166 kts 250°
2026-04-23 02:51 40.80720 -112.84374 12473 ft 167 kts 250°
2026-04-23 02:51 40.80261 -112.85783 12473 ft 167 kts 250°
2026-04-23 02:52 40.79807 -112.87177 12472 ft 167 kts 250°
2026-04-23 02:52 40.79363 -112.88600 12474 ft 166 kts 254°
2026-04-23 02:52 40.79028 -112.90040 12478 ft 166 kts 256°
2026-04-23 02:52 40.78724 -112.91509 12481 ft 166 kts 258°
2026-04-23 02:53 40.78554 -112.93015 12482 ft 166 kts 269°
2026-04-23 02:53 40.78547 -112.94530 12481 ft 166 kts 270°
2026-04-23 02:53 40.78512 -112.96060 12480 ft 166 kts 268°
2026-04-23 02:53 40.78416 -112.97576 12479 ft 166 kts 266°
2026-04-23 02:54 40.78313 -112.99068 12480 ft 166 kts 266°
2026-04-23 02:54 40.78204 -113.00577 12479 ft 165 kts 266°
2026-04-23 02:54 40.78097 -113.02100 12482 ft 165 kts 266°
2026-04-23 02:54 40.77988 -113.03615 12484 ft 166 kts 266°
2026-04-23 02:55 40.77881 -113.05134 12485 ft 166 kts 266°
2026-04-23 02:55 40.77770 -113.06658 12487 ft 167 kts 266°
2026-04-23 02:55 40.77664 -113.08158 12488 ft 166 kts 266°
2026-04-23 02:55 40.77553 -113.09679 12486 ft 166 kts 266°
2026-04-23 02:56 40.77445 -113.11201 12485 ft 166 kts 266°
2026-04-23 02:56 40.77334 -113.12714 12485 ft 166 kts 266°
2026-04-23 02:56 40.77226 -113.14235 12461 ft 167 kts 266°
2026-04-23 02:56 40.77114 -113.15771 12431 ft 168 kts 266°
2026-04-23 02:57 40.77004 -113.17299 12430 ft 167 kts 266°
2026-04-23 02:57 40.76891 -113.18832 12432 ft 167 kts 266°
2026-04-23 02:57 40.76783 -113.20332 12430 ft 166 kts 266°
2026-04-23 02:57 40.76670 -113.21859 12430 ft 165 kts 266°
2026-04-23 02:58 40.76561 -113.23365 12429 ft 165 kts 266°
2026-04-23 02:58 40.76451 -113.24861 12425 ft 165 kts 266°
2026-04-23 02:58 40.76341 -113.26367 12428 ft 166 kts 266°
2026-04-23 02:58 40.76230 -113.27882 12426 ft 166 kts 266°
2026-04-23 02:59 40.76118 -113.29395 12430 ft 166 kts 266°
2026-04-23 02:59 40.76006 -113.30920 12432 ft 166 kts 266°
2026-04-23 02:59 40.75894 -113.32432 12433 ft 166 kts 266°
2026-04-23 02:59 40.75782 -113.33959 12437 ft 166 kts 266°
2026-04-23 03:00 40.75670 -113.35458 12435 ft 167 kts 266°
2026-04-23 03:00 40.75558 -113.36978 12432 ft 166 kts 266°
2026-04-23 03:00 40.75443 -113.38511 12434 ft 166 kts 266°
2026-04-23 03:00 40.75332 -113.40010 12435 ft 166 kts 266°
2026-04-23 03:01 40.75218 -113.41528 12430 ft 166 kts 266°
2026-04-23 03:01 40.75105 -113.43041 12433 ft 166 kts 267°
2026-04-23 03:01 40.74991 -113.44549 12433 ft 166 kts 266°
2026-04-23 03:01 40.74878 -113.46074 12435 ft 166 kts 266°
2026-04-23 03:02 40.74763 -113.47584 12435 ft 167 kts 266°
2026-04-23 03:02 40.74648 -113.49125 12433 ft 167 kts 267°
2026-04-23 03:02 40.74532 -113.50647 12436 ft 167 kts 267°
2026-04-23 03:02 40.74418 -113.52172 12434 ft 167 kts 266°
2026-04-23 03:03 40.74301 -113.53698 12434 ft 167 kts 266°
2026-04-23 03:03 40.74186 -113.55229 12434 ft 167 kts 266°
2026-04-23 03:03 40.74070 -113.56739 12438 ft 167 kts 267°
2026-04-23 03:03 40.73955 -113.58270 12447 ft 167 kts 266°
2026-04-23 03:04 40.73837 -113.59798 12451 ft 168 kts 266°
2026-04-23 03:04 40.73721 -113.61327 12451 ft 168 kts 266°
2026-04-23 03:04 40.73603 -113.62860 12455 ft 168 kts 267°
2026-04-23 03:04 40.73486 -113.64400 12456 ft 168 kts 266°
2026-04-23 03:05 40.73369 -113.65914 12461 ft 168 kts 266°
2026-04-23 03:05 40.73252 -113.67445 12464 ft 168 kts 266°
2026-04-23 03:05 40.73132 -113.68987 12467 ft 168 kts 266°
2026-04-23 03:05 40.73014 -113.70515 12469 ft 168 kts 266°
2026-04-23 03:06 40.72896 -113.72039 12471 ft 168 kts 266°
2026-04-23 03:06 40.72777 -113.73574 12473 ft 168 kts 266°
2026-04-23 03:06 40.72658 -113.75113 12472 ft 168 kts 266°
2026-04-23 03:06 40.72573 -113.76645 12479 ft 167 kts 270°
2026-04-23 03:07 40.72524 -113.78176 12481 ft 168 kts 269°
2026-04-23 03:07 40.72468 -113.79723 12482 ft 168 kts 269°
2026-04-23 03:07 40.72411 -113.81269 12485 ft 168 kts 269°
2026-04-23 03:07 40.72356 -113.82804 12486 ft 168 kts 269°
2026-04-23 03:08 40.72299 -113.84331 12489 ft 169 kts 269°
2026-04-23 03:08 40.72243 -113.85878 12491 ft 169 kts 269°
2026-04-23 03:08 40.72185 -113.87424 12491 ft 169 kts 269°
2026-04-23 03:08 40.72129 -113.88967 12493 ft 169 kts 269°
2026-04-23 03:09 40.72071 -113.90520 12494 ft 169 kts 269°
2026-04-23 03:09 40.72014 -113.92069 12495 ft 169 kts 269°
2026-04-23 03:09 40.71955 -113.93624 12494 ft 169 kts 269°
2026-04-23 03:09 40.71898 -113.95153 12496 ft 169 kts 269°
2026-04-23 03:10 40.71841 -113.96699 12495 ft 169 kts 269°
2026-04-23 03:10 40.71782 -113.98255 12496 ft 169 kts 269°
2026-04-23 03:10 40.71723 -113.99799 12495 ft 169 kts 269°
2026-04-23 03:10 40.71666 -114.01329 12494 ft 169 kts 269°
2026-04-23 03:11 40.71607 -114.02873 12494 ft 169 kts 269°
2026-04-23 03:11 40.71547 -114.04420 12495 ft 168 kts 269°
2026-04-23 03:11 40.71488 -114.05963 12494 ft 168 kts 269°
2026-04-23 03:11 40.71428 -114.07508 12494 ft 168 kts 269°
2026-04-23 03:12 40.71369 -114.09049 12496 ft 168 kts 269°
2026-04-23 03:12 40.71309 -114.10590 12495 ft 168 kts 270°
2026-04-23 03:12 40.71250 -114.12129 12495 ft 167 kts 270°
2026-04-23 03:12 40.71190 -114.13651 12496 ft 167 kts 269°
2026-04-23 03:13 40.71131 -114.15185 12494 ft 167 kts 269°
2026-04-23 03:13 40.71070 -114.16723 12496 ft 167 kts 270°
2026-04-23 03:13 40.71010 -114.18249 12492 ft 167 kts 270°
2026-04-23 03:13 40.70951 -114.19752 12494 ft 166 kts 269°
2026-04-23 03:14 40.70889 -114.21278 12491 ft 166 kts 269°
2026-04-23 03:14 40.70831 -114.22790 12490 ft 165 kts 269°
2026-04-23 03:14 40.70768 -114.24294 12489 ft 164 kts 270°
2026-04-23 03:14 40.70710 -114.25799 12492 ft 165 kts 270°
2026-04-23 03:15 40.70651 -114.27310 12493 ft 166 kts 270°
2026-04-23 03:15 40.70587 -114.28830 12493 ft 165 kts 270°
2026-04-23 03:15 40.70525 -114.30343 12496 ft 165 kts 270°
2026-04-23 03:15 40.70465 -114.31852 12500 ft 165 kts 270°
2026-04-23 03:16 40.70409 -114.33362 12499 ft 166 kts 269°
2026-04-23 03:16 40.70341 -114.34886 12497 ft 166 kts 270°
2026-04-23 03:16 40.70215 -114.37927 12497 ft 166 kts 270°
2026-04-23 03:17 40.70153 -114.39440 12501 ft 165 kts 270°
2026-04-23 03:17 40.70091 -114.40955 12499 ft 165 kts 270°
2026-04-23 03:17 40.70028 -114.42463 12501 ft 165 kts 270°
2026-04-23 03:17 40.69965 -114.43975 12501 ft 165 kts 270°
2026-04-23 03:18 40.69903 -114.45475 12499 ft 165 kts 270°
2026-04-23 03:18 40.69839 -114.46976 12498 ft 165 kts 270°
2026-04-23 03:18 40.69777 -114.48488 12502 ft 165 kts 270°
2026-04-23 03:18 40.69712 -114.49994 12505 ft 165 kts 269°
2026-04-23 03:19 40.69650 -114.51498 12504 ft 165 kts 270°
2026-04-23 03:19 40.69585 -114.53004 12507 ft 165 kts 269°
2026-04-23 03:19 40.69522 -114.54516 12505 ft 165 kts 270°
2026-04-23 03:19 40.69457 -114.56021 12500 ft 164 kts 270°
2026-04-23 03:20 40.69392 -114.57518 12504 ft 164 kts 270°
2026-04-23 03:20 40.69329 -114.59020 12503 ft 164 kts 269°
2026-04-23 03:20 40.69276 -114.60509 12514 ft 161 kts 270°
2026-04-23 03:20 40.69202 -114.61982 12516 ft 164 kts 269°
2026-04-23 03:21 40.69133 -114.63489 12525 ft 166 kts 270°
2026-04-23 03:21 40.69067 -114.65014 12519 ft 166 kts 270°
2026-04-23 03:21 40.69001 -114.66532 12520 ft 166 kts 270°
2026-04-23 03:21 40.68936 -114.68052 12521 ft 165 kts 270°
2026-04-23 03:22 40.68870 -114.69552 12518 ft 165 kts 270°
2026-04-23 03:22 40.68804 -114.71060 12518 ft 165 kts 270°
2026-04-23 03:22 40.68737 -114.72571 12517 ft 165 kts 270°
2026-04-23 03:22 40.68670 -114.74075 12516 ft 164 kts 270°
2026-04-23 03:23 40.68603 -114.75584 12517 ft 164 kts 270°
2026-04-23 03:23 40.68537 -114.77084 12513 ft 164 kts 269°
2026-04-23 03:23 40.68470 -114.78581 12511 ft 163 kts 270°
2026-04-23 03:23 40.68405 -114.80054 12512 ft 162 kts 270°
2026-04-23 03:24 40.68337 -114.81543 12513 ft 163 kts 270°
2026-04-23 03:24 40.68270 -114.83051 12519 ft 165 kts 270°
2026-04-23 03:24 40.68202 -114.84563 12518 ft 166 kts 270°
2026-04-23 03:24 40.68132 -114.86076 12515 ft 165 kts 270°
2026-04-23 03:25 40.68064 -114.87591 12515 ft 165 kts 270°
2026-04-23 03:25 40.67995 -114.89098 12514 ft 164 kts 270°
2026-04-23 03:25 40.67937 -114.90583 12516 ft 163 kts 273°
2026-04-23 03:25 40.68145 -114.92034 12508 ft 162 kts 289°
2026-04-23 03:26 40.68646 -114.93360 12509 ft 162 kts 303°
2026-04-23 03:26 40.69354 -114.94523 12513 ft 162 kts 306°
2026-04-23 03:26 40.70034 -114.95698 12516 ft 161 kts 305°
2026-04-23 03:26 40.70708 -114.96842 12512 ft 155 kts 306°
2026-04-23 03:27 40.71356 -114.97940 12512 ft 147 kts 306°
2026-04-23 03:27 40.71961 -114.98960 12514 ft 135 kts 305°
2026-04-23 03:27 40.72514 -114.99896 12510 ft 127 kts 306°
2026-04-23 03:27 40.73045 -115.00798 12470 ft 124 kts 305°
2026-04-23 03:28 40.73575 -115.01692 12374 ft 121 kts 305°
2026-04-23 03:28 40.74085 -115.02558 12126 ft 122 kts 305°
2026-04-23 03:28 40.74608 -115.03442 11900 ft 121 kts 304°
2026-04-23 03:28 40.75125 -115.04319 11682 ft 120 kts 305°
2026-04-23 03:29 40.75634 -115.05183 11462 ft 119 kts 304°
2026-04-23 03:29 40.76140 -115.06040 11232 ft 118 kts 304°
2026-04-23 03:29 40.76639 -115.06889 10994 ft 118 kts 305°
2026-04-23 03:29 40.77142 -115.07740 10740 ft 117 kts 304°
2026-04-23 03:30 40.77641 -115.08586 10447 ft 117 kts 304°
2026-04-23 03:30 40.78136 -115.09440 10152 ft 118 kts 303°
2026-04-23 03:30 40.78636 -115.10284 10043 ft 116 kts 304°
2026-04-23 03:30 40.79133 -115.11122 9864 ft 116 kts 303°
2026-04-23 03:31 40.79627 -115.11961 9671 ft 115 kts 304°
2026-04-23 03:31 40.80113 -115.12788 9461 ft 115 kts 304°
2026-04-23 03:31 40.80610 -115.13631 9254 ft 116 kts 304°
2026-04-23 03:31 40.81108 -115.14480 9041 ft 117 kts 304°
2026-04-23 03:32 40.81420 -115.15021 9016 ft 106 kts 303°
2026-04-23 03:32 40.81934 -115.15879 8992 ft 77 kts 303°
2026-04-23 03:32 40.82157 -115.16273 9031 ft 85 kts 302°
2026-04-23 03:32 40.82574 -115.16987 9051 ft 110 kts 304°
2026-04-23 03:33 40.83079 -115.17847 9058 ft 127 kts 304°
2026-04-23 03:33 40.83651 -115.18814 9049 ft 140 kts 304°
2026-04-23 03:33 40.84259 -115.19847 9042 ft 146 kts 305°
2026-04-23 03:33 40.84889 -115.20920 9040 ft 149 kts 304°
2026-04-23 03:34 40.85532 -115.22012 9040 ft 151 kts 305°
2026-04-23 03:34 40.86172 -115.23098 9029 ft 150 kts 304°
2026-04-23 03:34 40.86810 -115.24185 9037 ft 151 kts 304°
2026-04-23 03:34 40.87453 -115.25291 9039 ft 152 kts 304°
2026-04-23 03:35 40.88101 -115.26398 9033 ft 152 kts 305°
2026-04-23 03:35 40.88748 -115.27502 9034 ft 152 kts 305°
2026-04-23 03:35 40.89397 -115.28612 9040 ft 152 kts 304°
2026-04-23 03:35 40.90047 -115.29723 9032 ft 153 kts 305°
2026-04-23 03:36 40.90703 -115.30842 9038 ft 154 kts 304°
2026-04-23 03:36 40.91352 -115.31952 9034 ft 154 kts 304°
2026-04-23 03:36 40.92006 -115.33072 9034 ft 153 kts 304°
2026-04-23 03:36 40.92662 -115.34193 9032 ft 153 kts 304°
2026-04-23 03:37 40.93304 -115.35292 9032 ft 153 kts 305°
2026-04-23 03:37 40.93938 -115.36423 9027 ft 152 kts 299°
2026-04-23 03:37 40.94301 -115.37720 9030 ft 151 kts 282°
2026-04-23 03:37 40.94365 -115.39104 9029 ft 152 kts 267°
2026-04-23 03:38 40.94108 -115.40463 9028 ft 154 kts 252°
2026-04-23 03:38 40.93700 -115.41773 9026 ft 154 kts 253°
2026-04-23 03:38 40.93316 -115.43100 9029 ft 154 kts 253°
2026-04-23 03:38 40.92926 -115.44416 9025 ft 153 kts 253°
2026-04-23 03:39 40.92535 -115.45729 9028 ft 154 kts 253°
2026-04-23 03:39 40.92140 -115.47050 9022 ft 154 kts 253°
2026-04-23 03:39 40.91752 -115.48344 9022 ft 154 kts 252°
2026-04-23 03:39 40.91360 -115.49661 9023 ft 153 kts 253°
2026-04-23 03:40 40.90970 -115.50963 9025 ft 149 kts 253°
2026-04-23 03:40 40.90608 -115.52167 9016 ft 133 kts 253°
2026-04-23 03:40 40.90284 -115.53243 9023 ft 120 kts 254°
2026-04-23 03:40 40.89991 -115.54221 9019 ft 110 kts 255°
2026-04-23 03:41 40.89741 -115.55133 9020 ft 102 kts 259°
2026-04-23 03:41 40.89539 -115.56003 9016 ft 95 kts 260°
2026-04-23 03:41 40.88909 -115.56542 8661 ft 135 kts 194°
2026-04-23 03:41 40.87934 -115.56604 8441 ft 141 kts 192°
2026-04-23 03:42 40.86976 -115.56681 8417 ft 133 kts 191°
2026-04-23 03:42 40.86132 -115.56827 8480 ft 108 kts 221°
2026-04-23 03:42 40.85833 -115.57535 8581 ft 81 kts 262°
2026-04-23 03:42 40.85650 -115.58199 8664 ft 71 kts 259°
2026-04-23 03:43 40.85483 -115.58802 8753 ft 70 kts 259°
2026-04-23 03:43 40.85316 -115.59413 8714 ft 69 kts 259°
2026-04-23 03:43 40.85149 -115.60026 8558 ft 70 kts 259°
2026-04-23 03:43 40.84992 -115.60643 8370 ft 76 kts 258°
2026-04-23 03:44 40.84817 -115.61384 8085 ft 92 kts 259°
2026-04-23 03:44 40.84633 -115.62214 7920 ft 94 kts 259°
2026-04-23 03:44 40.84714 -115.63019 7748 ft 91 kts 290°
2026-04-23 03:44 40.84680 -115.63856 7577 ft 93 kts 265°
2026-04-23 03:45 40.84600 -115.64716 7408 ft 95 kts 264°
2026-04-23 03:45 40.84494 -115.65580 7252 ft 95 kts 265°
2026-04-23 03:45 40.84384 -115.66437 7099 ft 96 kts 264°
2026-04-23 03:45 40.84269 -115.67306 6951 ft 97 kts 264°
2026-04-23 03:46 40.84148 -115.68189 6834 ft 95 kts 263°
2026-04-23 03:46 40.84029 -115.69035 6723 ft 95 kts 263°
2026-04-23 03:46 40.83912 -115.69899 6498 ft 97 kts 262°
2026-04-23 03:46 40.83784 -115.70780 6378 ft 97 kts 262°
2026-04-23 03:47 40.83662 -115.71658 6231 ft 98 kts 262°
2026-04-23 03:47 40.83541 -115.72505 6020 ft 89 kts 258°
2026-04-23 03:47 40.83437 -115.73230 5959 ft 75 kts 257°
2026-04-23 03:47 40.83324 -115.73978 5806 ft 92 kts 256°
2026-04-23 03:48 40.83212 -115.74791 5724 ft 87 kts 267°
2026-04-23 03:48 40.83209 -115.75575 5647 ft 84 kts 263°
2026-04-23 03:48 40.83105 -115.76337 5550 ft 84 kts 255°
2026-04-23 03:48 40.82927 -115.77037 5472 ft 81 kts 249°
2026-04-23 03:49 40.82734 -115.77725 5330 ft 78 kts 250°
2026-04-23 03:49 40.82551 -115.78380 5129 ft 73 kts 250°
2026-04-23 03:49 40.82383 -115.78931 5066 ft 55 kts 249°
2026-04-23 03:49 40.82324 -115.79168 5063 ft 7 kts 63°
2026-04-23 03:50 40.82350 -115.79087 5065 ft 13 kts 68°
2026-04-23 03:50 40.82405 -115.79021 5065 ft 11 kts 355°
2026-04-23 03:50 40.82478 -115.79028 5066 ft 13 kts 42°
2026-04-23 03:50 40.82525 -115.78898 5068 ft 17 kts 71°
2026-04-23 03:51 40.82566 -115.78767 5069 ft 14 kts 68°
2026-04-23 03:51 40.82601 -115.78663 5071 ft 12 kts 62°
2026-04-23 03:51 40.82631 -115.78567 5073 ft 16 kts 75°
2026-04-23 03:51 40.82673 -115.78435 5077 ft 0 kts 62°